Regional Weather Roundup
Issued by NWS Wakefield, VA

Home | Current Version | Previous Version | Text Only | Print | Product List | Glossary On
Versions: 1 2 3 4 5 6 7 8 9 10 11 12 13 14 15 16 17 18 19 20 21 22 23 24 25 26 27 28 29 30 31 32 33 34 35 36 37 38 39 40 41 42 43 44 45 46 47 48 49 50
270
ASUS41 KAKQ 292115
RWRAKQ

REGIONAL WEATHER ROUNDUP
NATIONAL WEATHER SERVICE WAKEFIELD VA
500 PM EDT FRI JUL 29 2016

Note: "fair" indicates few or no clouds below 12,000 feet with no
significant weather and/or obstructions to visibility. * = Denotes
station may not report precipitation (e.g., rain,snow,etc.),
thunder or fog.

VAZ042-051-052>054-056-292200-
NORTHERN VIRGINIA

CITY           SKY/WX    TMP DP  RH WIND       PRES   REMARKS
WASH NATIONAL  FAIR      90  69  50 S5        29.87S
DULLES         FAIR      88  66  48 VRB5      29.88F
FORT BELVOIR   NOT AVBL
QUANTICO       NOT AVBL
FREDERICKSBRG*   N/A     88  70  53 CALM      29.88S
STAFFORD*      FAIR      87  67  50 W3        29.93R
WARRENTON      FAIR      89  61  38 NW6       29.90R
CULPEPER*      FAIR      88  68  51 CALM      29.91R
MANASSAS*      MOSUNNY   90  66  45 CALM      29.88F
LEESBURG*      FAIR      90  72  55 W6G17     29.90S HX  96
WINCHESTER     FAIR      88  66  48 NW3       29.91S
FRONT ROYAL*   FAIR      86  68  54 N6        29.90S
LURAY*         NOT AVBL
$$

VAZ048-049-060>072-079>083-292200-
CENTRAL AND SOUTH CENTRAL VIRGINIA

CITY           SKY/WX    TMP DP  RH WIND       PRES   REMARKS
RICHMOND       FAIR      86  70  58 NW3       29.89S
CHESTERFIELD*  FAIR      88  63  42 N5        29.91S
PETERSBURG*    FAIR      89  70  53 NW3       29.90S
HANOVER        FAIR      86  68  54 NW7       29.91S
TAPPAHANNOCK*  PTSUNNY   85  70  60 NE3       29.89S
QUINTON*       FAIR      84  73  69 CALM      29.88S
CHARLOTTSVILLE CLOUDY    89  66  46 N5        29.91S
GORDONSVILLE*  CLOUDY    84  72  66 CALM      29.91R
ORANGE*          N/A     88  68  51 CALM      29.92S
LOUISA*        PTSUNNY   90  75  62 NE5       29.90S HX 100
BUMPASS*       FAIR      85  70  61 CALM      29.90S
FARMVILLE*     NOT AVBL
CREWE*         NOT AVBL
FORT PICKETT*  FAIR      86  71  59 N5        29.92R
CHASE CITY*    FAIR      88  70  54 CALM      29.91S
CLARKSVILLE*   FAIR      86  73  66 CALM      29.91S
SOUTH HILL*    PTSUNNY   85  73  66 CALM      29.96F
LAWRENCEVILLE* FAIR      87  73  62 N6        29.90S
EMPORIA*       FAIR      88  70  55 NW6       29.91S
$$

VAZ088>098-292200-
SOUTHEAST VIRGINIA

CITY           SKY/WX    TMP DP  RH WIND       PRES   REMARKS
NORFOLK        LGT RAIN  84  74  71 NE10      29.88R
VIRGINIA BEACH PTSUNNY   92  73  53 N9        29.87R HX 100
NORFOLK NAVAL  PTSUNNY   86  74  67 NE8       29.89S
WEST POINT*    FAIR      85  70  60 CALM      29.89S
SALUDA*        FAIR      85  74  69 N5        29.88R
NEWPORT NEWS   CLOUDY    85  73  67 N6        29.88S
LANGLEY AFB    CLOUDY    86  73  66 N7        29.88R
FORT EUSTIS    PTSUNNY   88  73  60 VRB3      29.86S HX  95
WILLIAMSBURG*  FAIR      88  75  66 N5        29.89R HX  97
HR EXEC AP*    CLOUDY    88  75  66 NE5       29.89S HX  97
FRANKLIN*      FAIR      87  71  59 NW5       29.89R
US460-WAKEFLD  FAIR      89  71  55 VRB5      29.88S HX  95
$$

VAZ020-022-025-037-045-292200-
WEST CENTRAL AND SOUTHWEST VIRGINIA

CITY           SKY/WX    TMP DP  RH WIND       PRES   REMARKS
STAUNTON*      FAIR      83  67  58 CALM      29.97S
WAYNESBORO*    FAIR      81  67  63 W3        29.97S
HOT SPRINGS VA NOT AVBL
LYNCHBURG      PTSUNNY   83  69  62 CALM      29.95S
DANVILLE       FAIR      88  67  49 W5        29.92F
SOUTH BOSTON*  CLOUDY   N/A N/A N/A CALM      29.91S
MARTINSVILLE   FAIR      89  65  44 NW3       29.96S
ROANOKE        FAIR      89  65  44 NW9       29.96S
BLACKSBURG     PTSUNNY   83  67  59 SW3       30.03F
DUBLIN*        FAIR      83  67  58 N6        30.02S
MARION*        PTSUNNY   80  68  66 W8        30.06S
HILLSVILLE*    PTSUNNY   79  66  64 CALM      30.04S
RICHLANDS*     MOCLDY    76  70  79 W6        30.05S
WISE*          CLOUDY   N/A N/A N/A NW3       30.05F
ABINGDON*      PTSUNNY   84  68  58 W3        30.02S
$$

MDZ021>025-VAZ099-100-292200-
SOUTHERN MARYLAND AND THE DELMARVA PENINSULA

CITY           SKY/WX    TMP DP  RH WIND       PRES   REMARKS
PATUXENT RIVER MOSUNNY   86  69  56 CALM      29.87S
BAY BRIDGE APT SUNNY     86  70  58 W3        29.87R
LEONARDTOWN    SUNNY     84  66  54 CALM      29.89
DOVER          SUNNY     86  75  71 N6        29.85R
GEORGETOWN     MOSUNNY   86  69  56 N7        29.87S
EASTON         MOSUNNY   88  75  66 NW7       29.90S HX  97
CAMBRIDGE      SUNNY     82  70  65 N5        29.87S
SALISBURY      NOT AVBL
OCEAN CITY     CLOUDY    80  72  76 E8        29.87R
WALLOPS ISLAND FAIR      88  72  58 NW8       29.87R
ACCOMACK*      NOT AVBL
$$

NCZ012>017-030>032-292200-
NORTH CENTRAL AND EASTERN NORTH CAROLINA

CITY           SKY/WX    TMP DP  RH WIND       PRES   REMARKS
ROANOKE RAPIDS FAIR      86  72  62 NW3       29.90S
RALEIGH        MOSUNNY   89  69  51 N3        29.91F
ELIZABETH CITY CLOUDY    88  72  58 W10       29.86S
AHOSKIE*       MOSUNNY   84  74  72 CALM      29.89S
EDENTON*       CLOUDY    92  70  49 NW6       29.88S HX  97
CURRITUCK*     CLOUDY    89  73  59 NW5       29.87S HX  96
KILL DEVIL HLS CLOUDY    87  75  67 NE5       29.86S HX  97
MANTEO           N/A     84  79  84 NE9       29.87S HX  96
CAPE HATTERAS  SUNNY     84  78  82 SW13      29.88F HX  95
TARBORO*       FAIR      90  74  59 N5        29.90R HX  99
GOLDSBORO      MOSUNNY   95  68  41 W9        29.88S HX  99
WASHINGTON     MOSUNNY   89  76  64 NW6       29.88R HX 100
GREENVILLE     SUNNY     91  72  52 W6        29.90S HX  98
NEW BERN       MOSUNNY   92  72  51 W6        29.88F HX  99
WILMINGTON     SUNNY     94  71  47 W17G23    29.89S HX 101
$$

VAZ048-292200-
ELSEWHERE

CITY           SKY/WX    TMP DP  RH WIND       PRES   REMARKS
HARRISBURG PA  MOSUNNY   90  69  50 CALM      29.85S
BALTIMORE      PTSUNNY   87  68  52 E7        29.86R
ANNAPOLIS      SUNNY     85  73  67 SE8       29.87R
ANDREWS AFB    FAIR      88  67  49 W5        29.87S
PHILADELPHIA   MOSUNNY   86  65  49 N7        29.86R
GREENSBORO     MOSUNNY   90  65  43 W6        29.93F
ROCKY MOUNT    MOSUNNY   91  72  53 W8        29.89S HX  98
$$

VAZ100-292200-
MARINE

STATION/POSITION TIME  TEMP    WIND        PRES    WAVE   SWELL
                       AIR SEA DIR/SP/G            HT/PER HT/PER
                 (UTC) (F)     (DEG/KT/KT) (MB)    (FT/S) (FT/S)
BRANDYWINE LGT   2000   80     320/  6/  8   N/A
CAPE MAY NJ      2000   78 74  110/  6/  7 1010.8R
LEWES DE         2000   80 76  320/  6/  8 1011.1R
OCEAN-CITY-INLET 2000   79 74   90/  6/  7 1011.5R
WACHAPREAGUE VA  2000   87 85  310/  3/  6 1011.4R
THOMAS POINT MD  2100   83 85  150/  5/  6 1012.8R
GOOSES REEF MD   2100   86 87   CALM  /  2 1012.7R   0
COVE POINT MD    2000   81     360/  7/  8 1012.2S
SOLOMONS ISLAND  2000   86 85  270/  7/  8   N/A
BISHOPS HEAD MD  2000   84      20/  3/ 10 1011.6F
PINEY POINT MD   2000          310/  5/  7   N/A
POTOMAC MD       2100   84 85   20/ 10/ 14 1010.6S   1
CAMBRIDGE MD     2000   84 87  300/  5/  9 1010.5S
LEWISETTA VA     2000   84 86  360/  6/  7 1011.3F
RAPPAHANNOCK LGT 2000          340/ 14/ 15 1012.1S
STINGRAY PT      2100   84 87  320/  4/  6 1012.0F   1/ 3
YORK RVR RNG VA  2000   84     360/  7/  8 1011.0F
YORKTOWN VA      2000   83 85  290/  8/  9 1011.2F
JAMESTOWN VA     2100   85 89  300/  6/  8   N/A     0
DOMINION TERM VA 2000   84     320/ 10/ 13 1011.6F
KIPTOPEKE VA     2000      81  340/  7/ 10   N/A
CHES BAY BRIDGE  2000   80 81  360/  7/  8 1011.5F
CAPE HENRY VA    2000   80     350/  8/  9   N/A
WILLOUBY STN VA  2000   82      60/  8/  9   N/A
CAPE HENRY BUOY  2012      80                N/A     2/14
1ST LANDING BUOY 2100   81 79   30/  6/  6 1011.4R   1/ 4
CAPE CHARLES BUO 2026      78                N/A     1/13
OFFSHORE WE BUOY 2021      82                N/A     2/ 5
64NM E OF VA BCH 2050   83 84  280/  6/  8 1011.2S   3/ 6   2/ 6
DUCK PIER NC     2000   83 68   80/  6/  7 1010.8F
44100 DUCK FRF   2005      81                N/A     2/ 4
44056 DUCK FRF   2011      78                N/A     1/ 9
OREGON INLET NC  2000   87 84   60/  4/  6 1011.1F
HATTERAS NC      2000   86 84  210/ 11/ 15 1011.6F
DIAMOND SHLS NC  2050   87 85  230/ 17/ 21 1011.8S   3/ 6   2/ 9
CAPE LOOKOUT NC  2100   86     230/ 12/ 18 1011.9R
$$




USA.gov is the U.S. government's official web portal to all federal, state and local government web resources and services.